Portada
METAR-TAF:

METAR-TAF

Aeroports :

Pyongyang, Corea del Nord

latitud: 39-02N, longitud: 125-47E, altitud: 36 m

METAR: manca

Hora: 01:49 (16:49 UTC)

Pronòstic

L'informe es va fer fa 12 hores i 19 minuts, a les 04:30 UTC
Pronòstic vàlid del 21 a les 06 UTC al 22 a les 06 UTC
Vent 8 kt del Sud/Sud-Oest
Visibilitat: 7000 m

TAF: ZKPY 210430Z 2106/2206 20004MPS 7000 NSC TX01/2106Z TNM08/2122Z

Observacions i pronòstics meteorològics de més de 4000 aeroports (METAR i TAF).

Les estacions disponibles són els punts grocs i vermells al mapa.

Posi el ratolí al punt desitjat per veure el nom de l'estació.

Feu clic per veure les observacions i els pronòstics meteorològics.

Per canviar el mapa: feu clic els botons verds amb una creu de color negre per apropar; al botó verd amb un guió per allunyar la imatge; o en les fletxes verdes per a mapes adjacents.


METAR-TAF: